Location: Kaiser
(34.0939°N, 117.4889°W)
Time: 03:44:54
(UTC+00:00)

Cosmos 1455 - Pass Details

Date: 29 October 2020
Orbit: 499 x 521 km, 82.5° (Epoch: 26 November)

Event Time Altitude Azimuth Distance (km) Brightness Sun altitude
Rises 13:32:45 0° 353° (N) 2,653 5.6 -7.8°
Reaches altitude 10° 13:34:53 10° 354° (N) 1,762 4.7 -7.4°
Maximum altitude 13:38:46 87° 86° (E) 527 2.3 -6.6°
Drops below altitude 10° 13:42:36 10° 174° (S) 1,747 5.1 -5.8°
Sets 13:44:43 0° 174° (S) 2,628 6.1 -5.4°
